TimeCST,TemperatureF,Dew PointF,Humidity,Sea Level PressureIn,VisibilityMPH,Wind Direction,Wind SpeedMPH,Gust SpeedMPH,PrecipitationIn,Events,Conditions,WindDirDegrees,DateUTC
12:15 AM,43.9,19.9,38,30.14,10.0,ENE,8.1,-,N/A,,Overcast,70,2011-11-08 06:15:00
12:35 AM,44.6,20.7,39,30.13,10.0,East,13.8,-,N/A,,Overcast,80,2011-11-08 06:35:00
12:55 AM,46.0,22.1,39,30.11,10.0,ENE,16.1,-,N/A,,Overcast,70,2011-11-08 06:55:00
1:15 AM,46.4,23.2,40,30.11,10.0,East,15.0,21.9,N/A,,Overcast,90,2011-11-08 07:15:00
1:35 AM,45.0,28.0,52,30.11,10.0,East,15.0,-,N/A,,Overcast,90,2011-11-08 07:35:00
1:55 AM,43.9,29.8,58,30.10,10.0,East,18.4,24.2,N/A,,Overcast,80,2011-11-08 07:55:00
2:15 AM,44.1,29.3,56,30.09,10.0,ENE,17.3,-,N/A,,Overcast,70,2011-11-08 08:15:00
2:35 AM,43.5,25.7,50,30.10,10.0,NNE,9.2,-,N/A,,Overcast,30,2011-11-08 08:35:00
2:55 AM,42.4,23.0,46,30.11,10.0,NE,8.1,-,N/A,,Overcast,40,2011-11-08 08:55:00
3:15 AM,42.4,22.8,46,30.11,10.0,NNE,8.1,-,N/A,,Overcast,30,2011-11-08 09:15:00
3:35 AM,42.6,22.8,46,30.09,10.0,NNE,8.1,-,N/A,,Overcast,20,2011-11-08 09:35:00
3:55 AM,42.8,22.3,44,30.09,10.0,North,10.4,-,N/A,,Overcast,10,2011-11-08 09:55:00
4:35 AM,41.9,20.5,42,30.10,10.0,NNE,10.4,-,N/A,,Overcast,20,2011-11-08 10:35:00
4:55 AM,41.5,20.7,43,30.11,10.0,NE,9.2,-,N/A,,Overcast,50,2011-11-08 10:55:00
5:15 AM,41.4,20.8,44,30.11,10.0,ENE,10.4,-,N/A,,Overcast,60,2011-11-08 11:15:00
5:35 AM,41.0,21.0,45,30.09,10.0,ENE,9.2,-,N/A,,Overcast,60,2011-11-08 11:35:00
5:55 AM,40.5,21.6,47,30.09,10.0,NE,11.5,-,N/A,,Overcast,40,2011-11-08 11:55:00
6:15 AM,40.5,22.1,48,30.11,10.0,NE,10.4,-,N/A,,Overcast,50,2011-11-08 12:15:00
6:35 AM,40.5,22.1,48,30.10,10.0,NE,12.7,-,N/A,,Overcast,40,2011-11-08 12:35:00
6:55 AM,40.3,21.9,48,30.10,10.0,NE,13.8,-,N/A,,Overcast,40,2011-11-08 12:55:00
7:15 AM,40.1,21.9,48,30.11,10.0,NE,11.5,17.3,N/A,,Overcast,40,2011-11-08 13:15:00
7:35 AM,40.1,22.1,49,30.11,10.0,NE,13.8,-,N/A,,Overcast,40,2011-11-08 13:35:00
7:55 AM,40.1,22.1,49,30.11,10.0,NNE,10.4,-,N/A,,Overcast,30,2011-11-08 13:55:00
8:15 AM,40.1,22.1,49,30.12,10.0,NNE,10.4,-,N/A,,Overcast,30,2011-11-08 14:15:00
8:35 AM,40.1,22.6,50,30.13,10.0,NNE,8.1,-,N/A,,Overcast,20,2011-11-08 14:35:00
8:55 AM,40.3,22.8,50,30.12,10.0,NNE,11.5,-,N/A,,Mostly Cloudy,30,2011-11-08 14:55:00
9:15 AM,40.5,23.2,50,30.13,10.0,NE,9.2,-,N/A,,Mostly Cloudy,40,2011-11-08 15:15:00
9:35 AM,40.8,23.4,50,30.14,10.0,NNE,9.2,-,N/A,,Mostly Cloudy,20,2011-11-08 15:35:00
9:55 AM,41.4,23.4,49,30.13,10.0,NE,12.7,-,N/A,,Scattered Clouds,40,2011-11-08 15:55:00
10:15 AM,41.9,23.0,47,30.13,10.0,NNE,13.8,-,N/A,,Mostly Cloudy,30,2011-11-08 16:15:00
10:35 AM,42.6,23.0,46,30.12,10.0,NE,15.0,-,N/A,,Mostly Cloudy,40,2011-11-08 16:35:00
10:55 AM,43.3,23.0,45,30.12,10.0,NNE,13.8,-,N/A,,Mostly Cloudy,30,2011-11-08 16:55:00
11:15 AM,44.1,22.8,43,30.12,10.0,NE,13.8,-,N/A,,Mostly Cloudy,40,2011-11-08 17:15:00
11:35 AM,44.6,22.5,42,30.11,10.0,NE,13.8,-,N/A,,Mostly Cloudy,50,2011-11-08 17:35:00
11:55 AM,45.0,22.3,41,30.10,10.0,NNE,12.7,-,N/A,,Mostly Cloudy,30,2011-11-08 17:55:00
12:15 PM,44.8,22.1,41,30.09,10.0,NNE,13.8,-,N/A,,Mostly Cloudy,30,2011-11-08 18:15:00
12:35 PM,45.0,21.2,39,30.09,10.0,NNE,15.0,-,N/A,,Mostly Cloudy,30,2011-11-08 18:35:00
12:55 PM,45.3,21.2,38,30.09,10.0,NNE,12.7,-,N/A,,Scattered Clouds,30,2011-11-08 18:55:00
1:15 PM,45.1,21.2,39,30.09,10.0,NNE,15.0,-,N/A,,Mostly Cloudy,20,2011-11-08 19:15:00
1:35 PM,44.8,21.6,40,30.08,10.0,NNE,15.0,-,N/A,,Mostly Cloudy,20,2011-11-08 19:35:00
1:55 PM,44.6,21.4,40,30.08,10.0,NNE,12.7,-,N/A,,Mostly Cloudy,30,2011-11-08 19:55:00
2:15 PM,44.6,20.8,39,30.08,10.0,NE,15.0,-,N/A,,Mostly Cloudy,40,2011-11-08 20:15:00
2:35 PM,44.6,19.9,37,30.07,10.0,NNE,13.8,-,N/A,,Mostly Cloudy,30,2011-11-08 20:35:00
2:55 PM,44.6,19.2,36,30.07,10.0,NNE,15.0,20.7,N/A,,Overcast,30,2011-11-08 20:55:00
3:15 PM,44.8,19.4,36,30.07,10.0,NNE,15.0,-,N/A,,Overcast,20,2011-11-08 21:15:00
3:35 PM,44.6,19.9,37,30.07,10.0,NE,16.1,19.6,N/A,,Overcast,40,2011-11-08 21:35:00
3:55 PM,44.6,19.8,37,30.08,10.0,NNE,15.0,-,N/A,,Overcast,30,2011-11-08 21:55:00
4:15 PM,44.2,19.9,38,30.08,10.0,NNE,16.1,-,N/A,,Overcast,30,2011-11-08 22:15:00
4:35 PM,43.9,21.0,40,30.09,10.0,NNE,13.8,-,N/A,,Overcast,30,2011-11-08 22:35:00
4:55 PM,43.5,20.8,41,30.09,10.0,NNE,13.8,17.3,N/A,,Overcast,20,2011-11-08 22:55:00
5:15 PM,43.2,20.3,40,30.09,10.0,North,15.0,-,N/A,,Overcast,10,2011-11-08 23:15:00
5:35 PM,43.0,20.8,41,30.09,10.0,NNE,11.5,-,N/A,,Overcast,20,2011-11-08 23:35:00
5:55 PM,42.8,21.7,43,30.09,10.0,NNE,12.7,18.4,N/A,,Overcast,20,2011-11-08 23:55:00
6:15 PM,42.4,22.1,44,30.09,10.0,NNE,12.7,-,N/A,,Overcast,20,2011-11-09 00:15:00
6:35 PM,42.3,22.5,45,30.09,10.0,NNE,11.5,-,N/A,,Overcast,20,2011-11-09 00:35:00
6:55 PM,42.1,22.3,45,30.09,10.0,NNE,13.8,-,N/A,,Overcast,30,2011-11-09 00:55:00
7:15 PM,41.9,22.3,46,30.10,10.0,NNE,11.5,-,N/A,,Overcast,30,2011-11-09 01:15:00
7:35 PM,41.5,22.6,47,30.09,10.0,NNE,10.4,-,N/A,,Overcast,20,2011-11-09 01:35:00
7:55 PM,41.2,22.8,48,30.11,10.0,NNE,11.5,-,N/A,,Overcast,30,2011-11-09 01:55:00
8:15 PM,41.2,23.0,48,30.10,10.0,NNE,12.7,-,N/A,,Overcast,30,2011-11-09 02:15:00
8:55 PM,40.8,23.4,50,30.11,10.0,NNE,11.5,-,N/A,,Overcast,30,2011-11-09 02:55:00
9:15 PM,40.6,23.2,50,30.11,10.0,NNE,11.5,-,N/A,,Overcast,30,2011-11-09 03:15:00
9:35 PM,40.6,23.0,49,30.11,10.0,NNE,13.8,18.4,N/A,,Overcast,30,2011-11-09 03:35:00
9:55 PM,40.5,22.5,49,30.09,10.0,NNE,16.1,20.7,N/A,,Overcast,20,2011-11-09 03:55:00
10:15 PM,40.3,21.9,48,30.09,10.0,NNE,15.0,19.6,N/A,,Overcast,30,2011-11-09 04:15:00
10:35 PM,40.1,21.2,47,30.09,10.0,NNE,13.8,19.6,N/A,,Overcast,20,2011-11-09 04:35:00
10:55 PM,40.1,21.2,47,30.09,10.0,NNE,15.0,18.4,N/A,,Overcast,20,2011-11-09 04:55:00
11:15 PM,40.1,21.0,47,30.09,10.0,North,15.0,20.7,N/A,,Overcast,10,2011-11-09 05:15:00
11:35 PM,39.9,21.0,47,30.09,10.0,North,12.7,-,N/A,,Overcast,10,2011-11-09 05:35:00
11:55 PM,39.6,21.7,49,30.09,10.0,North,11.5,18.4,N/A,,Overcast,360,2011-11-09 05:55:00